Time,TemperatureF,DewpointF,PressureIn,WindDirection,WindDirectionDegrees,WindSpeedMPH,WindSpeedGustMPH,Humidity,HourlyPrecipIn,Conditions,Clouds,dailyrainin,SoftwareType,DateUTC
2013-09-28 00:01:00,59.5,58.1,28.65,NNE,20,3.5,3.5,95,0.00,CLR,CLR,0.00,WeatherDisplay:10.37,2013-09-28 04:01:00,
2013-09-28 00:06:00,59.4,58.0,28.65,NNE,19,4.6,4.6,95,0.00,CLR,CLR,0.00,WeatherDisplay:10.37,2013-09-28 04:06:00,
2013-09-28 00:11:00,59.4,58.0,28.65,NNE,18,4.6,4.6,95,0.00,CLR,CLR,0.00,WeatherDisplay:10.37,2013-09-28 04:11:00,
2013-09-28 00:17:00,59.3,57.9,28.65,NNE,19,3.5,3.5,95,0.00,CLR,CLR,0.00,WeatherDisplay:10.37,2013-09-28 04:17:00,
2013-09-28 00:22:00,59.2,57.8,28.65,NNE,24,4.6,4.6,95,0.00,CLR,CLR,0.00,WeatherDisplay:10.37,2013-09-28 04:22:00,
2013-09-28 00:27:00,59.2,57.8,28.66,NNE,28,4.6,4.6,95,0.00,CLR,CLR,0.00,WeatherDisplay:10.37,2013-09-28 04:27:00,
2013-09-28 00:32:00,59.1,57.7,28.65,NNE,26,4.6,4.6,95,0.00,CLR,CLR,0.00,WeatherDisplay:10.37,2013-09-28 04:32:00,
2013-09-28 00:37:00,59.0,57.6,28.65,NNE,31,4.6,4.6,95,0.00,CLR,CLR,0.00,WeatherDisplay:10.37,2013-09-28 04:37:00,
2013-09-28 00:42:00,59.0,57.6,28.65,North,5,5.0,5.0,95,0.00,CLR,CLR,0.00,WeatherDisplay:10.37,2013-09-28 04:42:00,
2013-09-28 00:47:00,59.0,57.9,28.65,NNE,27,5.8,5.8,96,0.00,CLR,CLR,0.00,WeatherDisplay:10.37,2013-09-28 04:47:00,
2013-09-28 00:52:00,58.9,57.5,28.65,NNE,19,3.5,3.5,95,0.00,CLR,CLR,0.00,WeatherDisplay:10.37,2013-09-28 04:52:00,
2013-09-28 00:57:00,58.8,57.7,28.65,North,8,5.8,5.8,96,0.00,CLR,CLR,0.00,WeatherDisplay:10.37,2013-09-28 04:57:00,
2013-09-28 01:02:00,58.7,57.6,28.65,NNE,27,4.6,4.6,96,0.00,CLR,CLR,0.00,WeatherDisplay:10.37,2013-09-28 05:02:00,
2013-09-28 01:07:00,58.6,57.5,28.65,NNE,29,4.6,4.6,96,0.00,CLR,CLR,0.00,WeatherDisplay:10.37,2013-09-28 05:07:00,
2013-09-28 01:12:00,58.6,57.5,28.65,NE,35,4.6,4.6,96,0.00,CLR,CLR,0.00,WeatherDisplay:10.37,2013-09-28 05:12:00,
2013-09-28 01:17:00,58.5,57.4,28.64,NNE,29,5.0,5.0,96,0.00,CLR,CLR,0.00,WeatherDisplay:10.37,2013-09-28 05:17:00,
2013-09-28 01:22:00,58.3,57.5,28.65,NNE,21,5.8,5.8,97,0.00,CLR,CLR,0.00,WeatherDisplay:10.37,2013-09-28 05:22:00,
2013-09-28 01:27:00,58.2,57.4,28.64,North,6,4.6,4.6,97,0.00,CLR,CLR,0.00,WeatherDisplay:10.37,2013-09-28 05:27:00,
2013-09-28 01:32:00,58.1,57.3,28.65,North,6,4.0,4.0,97,0.00,CLR,CLR,0.00,WeatherDisplay:10.37,2013-09-28 05:32:00,
2013-09-28 01:37:00,57.9,56.8,28.65,North,6,3.0,3.0,96,0.00,CLR,CLR,0.00,WeatherDisplay:10.37,2013-09-28 05:37:00,
2013-09-28 01:42:00,57.8,57.0,28.65,North,6,3.5,3.5,97,0.00,CLR,CLR,0.00,WeatherDisplay:10.37,2013-09-28 05:42:00,
2013-09-28 01:47:00,57.8,57.0,28.64,NE,41,3.5,3.5,97,0.00,CLR,CLR,0.00,WeatherDisplay:10.37,2013-09-28 05:47:00,
2013-09-28 01:52:00,57.6,57.0,28.65,NE,41,3.0,3.0,98,0.00,CLR,CLR,0.00,WeatherDisplay:10.37,2013-09-28 05:52:00,
2013-09-28 01:57:00,57.6,57.3,28.64,NNE,23,3.5,3.5,99,0.00,CLR,CLR,0.00,WeatherDisplay:10.37,2013-09-28 05:57:00,
2013-09-28 02:02:00,57.6,57.3,28.64,NNE,23,3.5,3.5,99,0.00,CLR,CLR,0.00,WeatherDisplay:10.37,2013-09-28 06:02:00,
2013-09-28 02:07:00,57.6,57.3,28.65,NNE,23,3.5,3.5,99,0.00,CLR,CLR,0.00,WeatherDisplay:10.37,2013-09-28 06:07:00,
2013-09-28 02:12:00,57.6,57.3,28.65,NNE,22,4.6,4.6,99,0.00,CLR,CLR,0.00,WeatherDisplay:10.37,2013-09-28 06:12:00,
2013-09-28 02:17:00,57.6,57.6,28.65,NNE,22,3.5,3.5,100,0.00,CLR,CLR,0.00,WeatherDisplay:10.37,2013-09-28 06:17:00,
2013-09-28 02:22:00,57.6,57.6,28.65,NNE,23,3.5,3.5,100,0.00,CLR,CLR,0.00,WeatherDisplay:10.37,2013-09-28 06:22:00,
2013-09-28 02:27:00,57.6,57.3,28.65,NNE,22,1.2,1.2,99,0.00,CLR,CLR,0.00,WeatherDisplay:10.37,2013-09-28 06:27:00,
2013-09-28 02:32:00,57.6,57.6,28.65,NNE,23,2.3,2.3,100,0.00,CLR,CLR,0.00,WeatherDisplay:10.37,2013-09-28 06:32:00,
2013-09-28 02:37:00,57.6,57.3,28.64,NNE,23,0.0,0.0,99,0.00,CLR,CLR,0.00,WeatherDisplay:10.37,2013-09-28 06:37:00,
2013-09-28 02:42:00,57.5,57.2,28.64,NNE,23,0.0,0.0,99,0.00,CLR,CLR,0.00,WeatherDisplay:10.37,2013-09-28 06:42:00,
2013-09-28 02:47:00,57.5,57.5,28.64,NNE,23,2.3,2.3,100,0.00,CLR,CLR,0.00,WeatherDisplay:10.37,2013-09-28 06:47:00,
2013-09-28 02:52:00,57.4,57.1,28.64,NNE,23,0.0,0.0,99,0.00,CLR,CLR,0.00,WeatherDisplay:10.37,2013-09-28 06:52:00,
2013-09-28 02:57:00,57.3,57.3,28.63,NNE,22,2.3,2.3,100,0.00,CLR,CLR,0.00,WeatherDisplay:10.37,2013-09-28 06:57:00,
2013-09-28 03:02:00,57.1,57.1,28.63,NNE,23,1.2,1.2,100,0.00,CLR,CLR,0.00,WeatherDisplay:10.37,2013-09-28 07:02:00,
2013-09-28 03:07:00,57.0,57.0,28.64,NNE,22,0.0,0.0,100,0.00,CLR,CLR,0.00,WeatherDisplay:10.37,2013-09-28 07:07:00,
2013-09-28 03:12:00,56.8,56.8,28.64,NNE,22,2.3,2.3,100,0.00,CLR,CLR,0.00,WeatherDisplay:10.37,2013-09-28 07:12:00,
2013-09-28 03:17:00,56.5,56.5,28.64,NNE,22,1.2,1.2,100,0.00,CLR,CLR,0.00,WeatherDisplay:10.37,2013-09-28 07:17:00,
2013-09-28 03:22:00,56.4,56.4,28.64,NNE,22,0.0,0.0,100,0.00,CLR,CLR,0.00,WeatherDisplay:10.37,2013-09-28 07:22:00,
2013-09-28 03:27:00,56.3,56.3,28.64,NNE,22,2.3,2.3,100,0.00,CLR,CLR,0.00,WeatherDisplay:10.37,2013-09-28 07:27:00,
2013-09-28 03:32:00,56.2,56.2,28.64,NNE,23,1.2,1.2,100,0.00,CLR,CLR,0.00,WeatherDisplay:10.37,2013-09-28 07:32:00,
2013-09-28 03:37:00,56.1,56.1,28.64,North,352,2.3,2.3,100,0.00,CLR,CLR,0.00,WeatherDisplay:10.37,2013-09-28 07:37:00,
2013-09-28 03:42:00,56.0,56.0,28.64,North,352,2.3,2.3,100,0.00,CLR,CLR,0.00,WeatherDisplay:10.37,2013-09-28 07:42:00,
2013-09-28 03:47:00,55.9,55.9,28.64,NNW,345,1.0,1.0,100,0.00,CLR,CLR,0.00,WeatherDisplay:10.37,2013-09-28 07:47:00,
2013-09-28 03:52:00,55.8,55.8,28.64,NNW,345,0.0,0.1,100,0.00,CLR,CLR,0.00,WeatherDisplay:10.37,2013-09-28 07:52:00,
2013-09-28 03:57:00,55.8,55.8,28.65,NNW,345,1.2,1.2,100,0.00,CLR,CLR,0.00,WeatherDisplay:10.37,2013-09-28 07:57:00,
2013-09-28 04:02:00,55.8,55.8,28.64,NNW,345,0.0,0.0,100,0.00,CLR,CLR,0.00,WeatherDisplay:10.37,2013-09-28 08:02:00,
2013-09-28 04:07:00,55.8,55.8,28.64,NNW,345,1.2,1.2,100,0.00,CLR,CLR,0.00,WeatherDisplay:10.37,2013-09-28 08:07:00,
2013-09-28 04:12:00,55.8,55.8,28.65,NNW,345,0.0,0.0,100,0.00,CLR,CLR,0.00,WeatherDisplay:10.37,2013-09-28 08:12:00,
2013-09-28 04:18:00,55.8,55.8,28.64,NNW,345,0.0,0.0,100,0.00,CLR,CLR,0.00,WeatherDisplay:10.37,2013-09-28 08:18:00,
2013-09-28 04:23:00,55.7,55.7,28.65,NNW,345,1.2,0.0,100,0.00,CLR,CLR,0.00,WeatherDisplay:10.37,2013-09-28 08:23:00,
2013-09-28 04:28:00,55.6,55.6,28.64,NNW,345,0.0,0.0,100,0.00,CLR,CLR,0.00,WeatherDisplay:10.37,2013-09-28 08:28:00,
2013-09-28 04:33:00,55.6,55.6,28.65,NNW,342,2.3,0.0,100,0.00,CLR,CLR,0.00,WeatherDisplay:10.37,2013-09-28 08:33:00,
2013-09-28 04:38:00,55.5,55.5,28.65,NNW,342,0.0,0.0,100,0.00,CLR,CLR,0.00,WeatherDisplay:10.37,2013-09-28 08:38:00,
2013-09-28 04:43:00,55.5,55.5,28.65,NNW,342,0.0,0.0,100,0.00,CLR,CLR,0.00,WeatherDisplay:10.37,2013-09-28 08:43:00,
2013-09-28 04:48:00,55.5,55.5,28.66,NNW,342,0.0,0.0,100,0.00,CLR,CLR,0.00,WeatherDisplay:10.37,2013-09-28 08:48:00,
2013-09-28 04:53:00,55.4,55.4,28.66,NNW,342,0.0,0.0,100,0.00,CLR,CLR,0.00,WeatherDisplay:10.37,2013-09-28 08:53:00,
2013-09-28 04:58:00,55.4,55.4,28.65,NNW,337,2.3,2.3,100,0.00,CLR,CLR,0.00,WeatherDisplay:10.37,2013-09-28 08:58:00,
2013-09-28 05:03:00,55.3,55.3,28.66,NNW,337,1.2,1.2,100,0.00,CLR,CLR,0.00,WeatherDisplay:10.37,2013-09-28 09:03:00,
2013-09-28 05:08:00,55.1,55.1,28.66,NNW,337,2.3,2.3,100,0.00,CLR,CLR,0.00,WeatherDisplay:10.37,2013-09-28 09:08:00,
2013-09-28 05:13:00,55.0,55.0,28.65,NW,323,1.2,1.2,100,0.00,CLR,CLR,0.00,WeatherDisplay:10.37,2013-09-28 09:13:00,
2013-09-28 05:18:00,55.0,55.0,28.65,NW,311,3.5,3.5,100,0.00,CLR,CLR,0.00,WeatherDisplay:10.37,2013-09-28 09:18:00,
2013-09-28 05:23:00,54.9,54.9,28.64,WNW,289,3.5,3.5,100,0.00,CLR,CLR,0.00,WeatherDisplay:10.37,2013-09-28 09:23:00,
2013-09-28 05:28:00,54.9,54.9,28.65,WNW,289,3.5,3.5,100,0.00,CLR,CLR,0.00,WeatherDisplay:10.37,2013-09-28 09:28:00,
2013-09-28 05:33:00,54.8,54.8,28.65,WNW,289,0.0,0.0,100,0.00,CLR,CLR,0.00,WeatherDisplay:10.37,2013-09-28 09:33:00,
2013-09-28 05:38:00,54.8,54.8,28.66,WNW,289,0.0,0.0,100,0.00,CLR,CLR,0.00,WeatherDisplay:10.37,2013-09-28 09:38:00,
2013-09-28 05:43:00,54.7,54.7,28.65,WNW,289,2.3,2.3,100,0.00,CLR,CLR,0.00,WeatherDisplay:10.37,2013-09-28 09:43:00,
2013-09-28 05:48:00,54.7,54.7,28.64,WNW,285,1.2,1.2,100,0.00,CLR,CLR,0.00,WeatherDisplay:10.37,2013-09-28 09:48:00,
2013-09-28 05:53:00,54.6,54.6,28.68,WNW,285,1.2,1.2,100,0.00,CLR,CLR,0.00,WeatherDisplay:10.37,2013-09-28 09:53:00,
2013-09-28 05:58:00,54.6,54.6,28.69,WNW,283,3.5,3.5,100,0.00,CLR,CLR,0.00,WeatherDisplay:10.37,2013-09-28 09:58:00,
2013-09-28 06:03:00,54.6,54.6,28.68,West,270,1.2,1.2,100,0.00,CLR,CLR,0.00,WeatherDisplay:10.37,2013-09-28 10:03:00,
2013-09-28 06:08:00,54.6,54.6,28.69,West,270,2.3,2.3,100,0.00,CLR,CLR,0.00,WeatherDisplay:10.37,2013-09-28 10:08:00,
2013-09-28 06:13:00,54.6,54.6,28.70,West,270,2.3,2.3,100,0.00,CLR,CLR,0.00,WeatherDisplay:10.37,2013-09-28 10:13:00,
2013-09-28 06:18:00,54.6,54.6,28.69,West,270,2.3,2.3,100,0.00,CLR,CLR,0.00,WeatherDisplay:10.37,2013-09-28 10:18:00,
2013-09-28 06:23:00,54.5,54.5,28.69,West,270,1.2,1.2,100,0.00,CLR,CLR,0.00,WeatherDisplay:10.37,2013-09-28 10:23:00,
2013-09-28 06:28:00,54.5,54.5,28.68,West,271,1.2,1.2,100,0.00,CLR,CLR,0.00,WeatherDisplay:10.37,2013-09-28 10:28:00,
2013-09-28 06:33:00,54.4,54.4,28.69,West,271,2.3,2.3,100,0.00,CLR,CLR,0.00,WeatherDisplay:10.37,2013-09-28 10:33:00,
2013-09-28 06:38:00,54.3,54.3,28.69,West,271,2.0,2.0,100,0.00,CLR,CLR,0.00,WeatherDisplay:10.37,2013-09-28 10:38:00,
2013-09-28 06:44:00,54.1,54.1,28.69,West,271,3.5,3.5,100,0.00,CLR,CLR,0.00,WeatherDisplay:10.37,2013-09-28 10:44:00,
2013-09-28 06:49:00,53.9,53.9,28.68,West,271,3.0,3.0,100,0.00,CLR,CLR,0.00,WeatherDisplay:10.37,2013-09-28 10:49:00,
2013-09-28 06:54:00,53.8,53.8,28.70,West,271,0.0,0.0,100,0.00,CLR,CLR,0.00,WeatherDisplay:10.37,2013-09-28 10:54:00,
2013-09-28 06:59:00,53.7,53.7,28.69,West,271,2.3,2.3,100,0.00,CLR,CLR,0.00,WeatherDisplay:10.37,2013-09-28 10:59:00,
2013-09-28 07:04:00,53.6,53.6,29.09,West,271,3.5,3.5,100,0.00,CLR,CLR,0.00,WeatherDisplay:10.37,2013-09-28 11:04:00,
2013-09-28 07:09:00,53.5,53.5,29.16,West,270,2.3,2.3,100,0.00,CLR,CLR,0.00,WeatherDisplay:10.37,2013-09-28 11:09:00,
2013-09-28 07:14:00,53.6,53.6,29.09,West,270,0.0,0.0,100,0.00,CLR,CLR,0.00,WeatherDisplay:10.37,2013-09-28 11:14:00,
2013-09-28 07:19:00,53.7,53.7,29.11,West,270,0.0,0.0,100,0.00,CLR,CLR,0.00,WeatherDisplay:10.37,2013-09-28 11:19:00,
2013-09-28 07:24:00,53.8,53.8,29.07,West,270,1.0,0.0,100,0.00,CLR,CLR,0.00,WeatherDisplay:10.37,2013-09-28 11:24:00,
2013-09-28 07:29:00,53.9,53.9,29.09,West,270,0.0,0.0,100,0.00,CLR,CLR,0.00,WeatherDisplay:10.37,2013-09-28 11:29:00,
2013-09-28 07:34:00,54.1,54.1,29.09,West,270,1.0,1.0,100,0.00,CLR,CLR,0.00,WeatherDisplay:10.37,2013-09-28 11:34:00,
2013-09-28 07:39:00,54.2,54.2,28.99,West,270,0.0,0.0,100,0.00,CLR,CLR,0.00,WeatherDisplay:10.37,2013-09-28 11:39:00,
2013-09-28 07:44:00,54.2,54.2,29.03,West,270,0.0,0.0,100,0.00,CLR,CLR,0.00,WeatherDisplay:10.37,2013-09-28 11:44:00,
2013-09-28 07:49:00,54.3,54.3,29.10,West,270,2.3,2.3,100,0.00,CLR,CLR,0.00,WeatherDisplay:10.37,2013-09-28 11:49:00,
2013-09-28 07:54:00,54.4,54.4,29.10,West,270,0.0,0.0,100,0.00,CLR,CLR,0.00,WeatherDisplay:10.37,2013-09-28 11:54:00,
2013-09-28 07:59:00,54.5,54.5,29.10,West,270,1.0,0.0,100,0.00,CLR,CLR,0.00,WeatherDisplay:10.37,2013-09-28 11:59:00,
2013-09-28 08:04:00,54.7,54.7,29.08,West,270,2.3,0.0,100,0.00,CLR,CLR,0.00,WeatherDisplay:10.37,2013-09-28 12:04:00,
2013-09-28 08:09:00,55.0,55.0,29.09,West,270,3.5,3.5,100,0.00,CLR,CLR,0.00,WeatherDisplay:10.37,2013-09-28 12:09:00,
2013-09-28 08:14:00,55.2,55.2,29.08,West,270,3.5,3.5,100,0.00,CLR,CLR,0.00,WeatherDisplay:10.37,2013-09-28 12:14:00,
2013-09-28 08:19:00,55.6,55.6,29.06,West,265,3.5,3.5,100,0.00,CLR,CLR,0.00,WeatherDisplay:10.37,2013-09-28 12:19:00,
2013-09-28 08:24:00,55.9,55.9,29.07,West,265,3.5,3.5,100,0.00,CLR,CLR,0.00,WeatherDisplay:10.37,2013-09-28 12:24:00,
2013-09-28 08:29:00,56.3,56.3,29.08,West,263,3.5,3.5,100,0.00,CLR,CLR,0.00,WeatherDisplay:10.37,2013-09-28 12:29:00,
2013-09-28 08:34:00,56.6,56.6,29.08,West,263,3.5,3.5,100,0.00,CLR,CLR,0.00,WeatherDisplay:10.37,2013-09-28 12:34:00,
2013-09-28 08:39:00,56.9,56.9,28.99,West,263,3.5,3.5,100,0.00,CLR,CLR,0.00,WeatherDisplay:10.37,2013-09-28 12:39:00,
2013-09-28 08:44:00,57.3,57.3,28.98,West,263,3.5,3.5,100,0.00,CLR,CLR,0.00,WeatherDisplay:10.37,2013-09-28 12:44:00,
2013-09-28 08:49:00,57.6,57.6,28.98,West,263,2.3,2.3,100,0.00,CLR,CLR,0.00,WeatherDisplay:10.37,2013-09-28 12:49:00,
2013-09-28 08:54:00,57.8,57.8,28.97,West,263,3.5,3.5,100,0.00,CLR,CLR,0.00,WeatherDisplay:10.37,2013-09-28 12:54:00,
2013-09-28 08:59:00,58.2,57.9,28.97,West,263,1.2,0.0,99,0.00,CLR,CLR,0.00,WeatherDisplay:10.37,2013-09-28 12:59:00,
2013-09-28 09:04:00,58.5,58.2,28.98,West,264,2.3,2.3,99,0.00,CLR,CLR,0.00,WeatherDisplay:10.37,2013-09-28 13:04:00,
2013-09-28 09:09:00,59.2,58.6,29.02,West,264,2.3,2.3,98,0.00,CLR,CLR,0.00,WeatherDisplay:10.37,2013-09-28 13:09:00,
2013-09-28 09:14:00,59.9,58.5,28.97,West,269,3.5,3.5,95,0.00,CLR,CLR,0.00,WeatherDisplay:10.37,2013-09-28 13:14:00,
2013-09-28 09:19:00,60.7,59.0,28.97,West,269,2.3,2.3,94,0.00,CLR,CLR,0.00,WeatherDisplay:10.37,2013-09-28 13:19:00,
2013-09-28 09:24:00,61.2,58.6,29.02,West,269,2.3,2.3,91,0.00,CLR,CLR,0.00,WeatherDisplay:10.37,2013-09-28 13:24:00,
2013-09-28 09:29:00,61.6,58.3,29.08,NNE,16,3.5,3.5,89,0.00,CLR,CLR,0.00,WeatherDisplay:10.37,2013-09-28 13:29:00,
2013-09-28 09:34:00,62.0,59.0,29.10,NNE,15,3.5,3.5,90,0.00,CLR,CLR,0.00,WeatherDisplay:10.37,2013-09-28 13:34:00,
2013-09-28 09:39:00,62.5,59.2,29.13,NE,42,3.5,3.5,89,0.00,CLR,CLR,0.00,WeatherDisplay:10.37,2013-09-28 13:39:00,
2013-09-28 09:44:00,63.0,59.7,29.15,North,349,2.3,2.3,89,0.00,CLR,CLR,0.00,WeatherDisplay:10.37,2013-09-28 13:44:00,
2013-09-28 09:49:00,63.6,60.0,28.95,NNE,30,1.2,1.2,88,0.00,CLR,CLR,0.00,WeatherDisplay:10.37,2013-09-28 13:49:00,
2013-09-28 09:54:00,64.3,59.7,28.97,NNE,18,2.3,2.3,85,0.00,CLR,CLR,0.00,WeatherDisplay:10.37,2013-09-28 13:54:00,
2013-09-28 09:59:00,64.5,59.2,28.99,NE,35,3.5,3.5,83,0.00,CLR,CLR,0.00,WeatherDisplay:10.37,2013-09-28 13:59:00,
2013-09-28 10:04:00,65.0,59.4,29.03,North,3,2.3,2.3,82,0.00,CLR,CLR,0.00,WeatherDisplay:10.37,2013-09-28 14:04:00,
2013-09-28 10:09:00,65.2,58.9,29.00,NNE,15,3.5,3.5,80,0.00,CLR,CLR,0.00,WeatherDisplay:10.37,2013-09-28 14:09:00,
2013-09-28 10:14:00,65.6,58.6,28.96,North,1,8.1,8.1,78,0.00,CLR,CLR,0.00,WeatherDisplay:10.37,2013-09-28 14:14:00,
2013-09-28 10:19:00,65.0,58.3,29.02,North,0,3.5,3.5,79,0.00,CLR,CLR,0.00,WeatherDisplay:10.37,2013-09-28 14:19:00,
2013-09-28 10:24:00,64.9,58.2,29.02,North,5,4.6,4.6,79,0.00,CLR,CLR,0.00,WeatherDisplay:10.37,2013-09-28 14:24:00,
2013-09-28 10:29:00,64.8,58.1,29.01,North,5,2.3,2.3,79,0.00,CLR,CLR,0.00,WeatherDisplay:10.37,2013-09-28 14:29:00,
2013-09-28 10:34:00,64.8,58.5,29.08,North,5,2.3,2.3,80,0.00,CLR,CLR,0.00,WeatherDisplay:10.37,2013-09-28 14:34:00,
2013-09-28 10:39:00,64.6,57.9,29.03,North,1,2.3,2.3,79,0.00,CLR,CLR,0.00,WeatherDisplay:10.37,2013-09-28 14:39:00,
2013-09-28 10:44:00,64.6,58.3,29.09,North,0,6.0,6.0,80,0.00,CLR,CLR,0.00,WeatherDisplay:10.37,2013-09-28 14:44:00,
2013-09-28 10:49:00,64.6,59.0,29.10,North,0,3.5,3.5,82,0.00,CLR,CLR,0.00,WeatherDisplay:10.37,2013-09-28 14:49:00,
2013-09-28 10:54:00,64.8,58.1,28.99,NNE,19,5.8,5.8,79,0.00,CLR,CLR,0.00,WeatherDisplay:10.37,2013-09-28 14:54:00,
2013-09-28 10:59:00,65.5,59.5,28.98,NNE,15,6.0,6.0,81,0.00,CLR,CLR,0.00,WeatherDisplay:10.37,2013-09-28 14:59:00,
2013-09-28 11:04:00,65.9,58.8,28.95,NNE,29,6.9,6.9,78,0.00,CLR,CLR,0.00,WeatherDisplay:10.37,2013-09-28 15:04:00,
2013-09-28 11:09:00,65.4,58.4,29.01,NNE,19,5.8,5.8,78,0.00,CLR,CLR,0.00,WeatherDisplay:10.37,2013-09-28 15:09:00,
2013-09-28 11:14:00,64.8,57.8,28.97,North,356,9.2,9.2,78,0.00,CLR,CLR,0.00,WeatherDisplay:10.37,2013-09-28 15:14:00,
2013-09-28 11:19:00,64.6,57.6,28.98,NNE,26,4.6,4.6,78,0.00,CLR,CLR,0.00,WeatherDisplay:10.37,2013-09-28 15:19:00,
2013-09-28 11:24:00,64.4,57.7,28.95,North,358,4.0,4.0,79,0.00,CLR,CLR,0.00,WeatherDisplay:10.37,2013-09-28 15:24:00,
2013-09-28 11:29:00,64.1,57.5,28.97,North,0,4.6,4.6,79,0.00,CLR,CLR,0.00,WeatherDisplay:10.37,2013-09-28 15:29:00,
2013-09-28 11:34:00,64.1,57.5,29.00,North,0,6.9,6.9,79,0.00,CLR,CLR,0.00,WeatherDisplay:10.37,2013-09-28 15:34:00,
2013-09-28 11:39:00,64.1,57.5,29.03,North,6,8.1,8.1,79,0.00,CLR,CLR,0.00,WeatherDisplay:10.37,2013-09-28 15:39:00,
2013-09-28 11:44:00,63.8,56.8,29.01,North,4,4.6,4.6,78,0.00,CLR,CLR,0.00,WeatherDisplay:10.37,2013-09-28 15:44:00,
2013-09-28 11:49:00,64.2,57.9,29.10,North,5,5.0,5.0,80,0.00,CLR,CLR,0.00,WeatherDisplay:10.37,2013-09-28 15:49:00,
2013-09-28 11:54:00,64.5,58.2,29.11,NE,41,3.5,3.5,80,0.00,CLR,CLR,0.00,WeatherDisplay:10.37,2013-09-28 15:54:00,
2013-09-28 11:59:00,64.4,57.7,29.11,NNW,332,9.2,9.2,79,0.00,CLR,CLR,0.00,WeatherDisplay:10.37,2013-09-28 15:59:00,
2013-09-28 12:04:00,64.3,57.3,29.06,NNW,347,8.1,8.1,78,0.00,CLR,CLR,0.00,WeatherDisplay:10.37,2013-09-28 16:04:00,
2013-09-28 12:09:00,64.1,57.5,28.98,NNE,22,4.6,4.6,79,0.00,CLR,CLR,0.00,WeatherDisplay:10.37,2013-09-28 16:09:00,
2013-09-28 12:14:00,64.2,57.5,28.97,North,9,2.3,2.3,79,0.00,CLR,CLR,0.00,WeatherDisplay:10.37,2013-09-28 16:14:00,
2013-09-28 12:19:00,64.2,57.5,29.04,North,1,5.8,5.8,79,0.00,CLR,CLR,0.00,WeatherDisplay:10.37,2013-09-28 16:19:00,
2013-09-28 12:24:00,64.1,57.5,29.03,North,0,8.1,8.1,79,0.00,CLR,CLR,0.00,WeatherDisplay:10.37,2013-09-28 16:24:00,
2013-09-28 12:29:00,64.3,57.3,29.02,NE,38,3.5,3.5,78,0.00,CLR,CLR,0.00,WeatherDisplay:10.37,2013-09-28 16:29:00,
2013-09-28 12:34:00,64.4,57.7,28.98,North,0,2.3,2.3,79,0.00,CLR,CLR,0.00,WeatherDisplay:10.37,2013-09-28 16:34:00,
2013-09-28 12:39:00,64.5,57.8,29.04,NNE,21,4.6,4.6,79,0.00,CLR,CLR,0.00,WeatherDisplay:10.37,2013-09-28 16:39:00,
2013-09-28 12:44:00,64.7,58.7,28.98,NNE,21,3.5,3.5,81,0.00,CLR,CLR,0.00,WeatherDisplay:10.37,2013-09-28 16:44:00,
2013-09-28 12:49:00,64.5,57.8,29.01,North,0,6.9,6.9,79,0.00,CLR,CLR,0.00,WeatherDisplay:10.37,2013-09-28 16:49:00,
2013-09-28 12:54:00,64.3,57.3,28.93,North,357,8.1,8.1,78,0.00,CLR,CLR,0.00,WeatherDisplay:10.37,2013-09-28 16:54:00,
2013-09-28 12:59:00,64.1,57.1,28.93,North,3,6.0,6.0,78,0.00,CLR,CLR,0.00,WeatherDisplay:10.37,2013-09-28 16:59:00,
2013-09-28 13:04:00,63.9,56.9,29.02,North,358,5.8,5.8,78,0.00,CLR,CLR,0.00,WeatherDisplay:10.37,2013-09-28 17:04:00,
2013-09-28 13:09:00,63.6,56.6,29.09,North,4,9.2,9.2,78,0.00,CLR,CLR,0.00,WeatherDisplay:10.37,2013-09-28 17:09:00,
2013-09-28 13:14:00,63.5,56.9,29.12,North,10,6.0,6.0,79,0.00,CLR,CLR,0.00,WeatherDisplay:10.37,2013-09-28 17:14:00,
2013-09-28 13:19:00,63.1,56.1,29.13,North,1,6.9,6.9,78,0.00,CLR,CLR,0.00,WeatherDisplay:10.37,2013-09-28 17:19:00,
2013-09-28 13:24:00,62.8,56.2,29.11,North,358,3.5,3.5,79,0.00,CLR,CLR,0.00,WeatherDisplay:10.37,2013-09-28 17:24:00,
2013-09-28 13:29:00,62.7,56.4,29.03,NE,35,5.0,5.6,80,0.00,CLR,CLR,0.00,WeatherDisplay:10.37,2013-09-28 17:29:00,
2013-09-28 13:34:00,62.5,55.9,29.03,NE,35,8.1,8.1,79,0.00,CLR,CLR,0.00,WeatherDisplay:10.37,2013-09-28 17:34:00,
2013-09-28 13:39:00,62.4,55.8,28.98,North,2,9.2,9.2,79,0.00,CLR,CLR,0.00,WeatherDisplay:10.37,2013-09-28 17:39:00,
2013-09-28 13:44:00,62.7,56.4,28.93,NNW,342,2.3,2.3,80,0.00,CLR,CLR,0.00,WeatherDisplay:10.37,2013-09-28 17:44:00,
2013-09-28 13:49:00,63.0,56.7,28.97,North,352,8.1,8.1,80,0.00,CLR,CLR,0.00,WeatherDisplay:10.37,2013-09-28 17:49:00,
2013-09-28 13:54:00,63.3,56.7,28.94,North,11,5.8,5.8,79,0.00,CLR,CLR,0.00,WeatherDisplay:10.37,2013-09-28 17:54:00,
2013-09-28 13:59:00,63.6,57.3,28.95,North,0,2.3,2.3,80,0.00,CLR,CLR,0.00,WeatherDisplay:10.37,2013-09-28 17:59:00,
2013-09-28 14:04:00,64.2,57.2,28.93,NW,312,8.0,8.0,78,0.00,CLR,CLR,0.00,WeatherDisplay:10.37,2013-09-28 18:04:00,
2013-09-28 14:09:00,64.6,57.6,29.10,NNW,338,13.8,13.8,78,0.00,CLR,CLR,0.00,WeatherDisplay:10.37,2013-09-28 18:09:00,
2013-09-28 14:14:00,64.7,57.7,29.01,North,0,8.1,8.1,78,0.00,CLR,CLR,0.00,WeatherDisplay:10.37,2013-09-28 18:14:00,
2013-09-28 14:19:00,64.9,58.2,29.07,North,354,3.5,3.5,79,0.00,CLR,CLR,0.00,WeatherDisplay:10.37,2013-09-28 18:19:00,
2013-09-28 14:25:00,64.6,57.6,28.91,North,5,6.9,6.9,78,0.00,CLR,CLR,0.00,WeatherDisplay:10.37,2013-09-28 18:25:00,
2013-09-28 14:30:00,64.0,57.0,28.98,North,5,10.0,10.0,78,0.00,CLR,CLR,0.00,WeatherDisplay:10.37,2013-09-28 18:30:00,
2013-09-28 14:35:00,63.5,56.5,28.97,North,1,10.4,10.4,78,0.00,CLR,CLR,0.00,WeatherDisplay:10.37,2013-09-28 18:35:00,
2013-09-28 14:40:00,63.3,57.0,29.04,North,357,6.0,6.0,80,0.00,CLR,CLR,0.00,WeatherDisplay:10.37,2013-09-28 18:40:00,
2013-09-28 14:45:00,63.4,56.8,29.10,NNE,15,5.8,5.8,79,0.00,CLR,CLR,0.00,WeatherDisplay:10.37,2013-09-28 18:45:00,
2013-09-28 14:50:00,63.6,57.0,29.05,North,6,4.6,4.6,79,0.00,CLR,CLR,0.00,WeatherDisplay:10.37,2013-09-28 18:50:00,
2013-09-28 14:55:00,63.6,56.6,29.03,North,3,5.0,5.0,78,0.00,CLR,CLR,0.00,WeatherDisplay:10.37,2013-09-28 18:55:00,
2013-09-28 15:00:00,63.9,56.9,29.03,NNW,343,8.1,8.1,78,0.00,CLR,CLR,0.00,WeatherDisplay:10.37,2013-09-28 19:00:00,
2013-09-28 15:05:00,63.9,56.9,29.04,NNE,21,8.1,8.1,78,0.00,CLR,CLR,0.00,WeatherDisplay:10.37,2013-09-28 19:05:00,
2013-09-28 15:10:00,64.2,57.2,29.01,NNW,346,4.6,4.6,78,0.00,CLR,CLR,0.00,WeatherDisplay:10.37,2013-09-28 19:10:00,
2013-09-28 15:15:00,64.5,57.8,29.14,North,1,5.8,5.8,79,0.00,CLR,CLR,0.00,WeatherDisplay:10.37,2013-09-28 19:15:00,
2013-09-28 15:20:00,64.4,57.4,29.07,North,11,10.4,10.4,78,0.00,CLR,CLR,0.00,WeatherDisplay:10.37,2013-09-28 19:20:00,
2013-09-28 15:25:00,63.9,56.9,28.98,North,4,6.9,6.9,78,0.00,CLR,CLR,0.00,WeatherDisplay:10.37,2013-09-28 19:25:00,
2013-09-28 15:30:00,63.7,56.7,28.94,NNE,27,5.8,5.8,78,0.00,CLR,CLR,0.00,WeatherDisplay:10.37,2013-09-28 19:30:00,
2013-09-28 15:35:00,63.6,56.6,29.00,NNW,347,8.1,8.1,78,0.00,CLR,CLR,0.00,WeatherDisplay:10.37,2013-09-28 19:35:00,
2013-09-28 15:40:00,64.0,57.0,29.19,NNE,18,11.5,11.5,78,0.00,CLR,CLR,0.00,WeatherDisplay:10.37,2013-09-28 19:40:00,
2013-09-28 15:45:00,64.6,57.6,29.05,North,5,5.8,5.8,78,0.00,CLR,CLR,0.00,WeatherDisplay:10.37,2013-09-28 19:45:00,
2013-09-28 15:50:00,64.7,57.7,29.15,NNE,32,6.9,6.9,78,0.00,CLR,CLR,0.00,WeatherDisplay:10.37,2013-09-28 19:50:00,
2013-09-28 15:55:00,64.5,57.5,28.94,NNW,339,9.2,9.2,78,0.00,CLR,CLR,0.00,WeatherDisplay:10.37,2013-09-28 19:55:00,
2013-09-28 16:00:00,64.2,57.2,28.93,North,4,8.1,8.1,78,0.00,CLR,CLR,0.00,WeatherDisplay:10.37,2013-09-28 20:00:00,
2013-09-28 16:05:00,64.1,57.1,29.06,NNE,16,8.1,8.1,78,0.00,CLR,CLR,0.00,WeatherDisplay:10.37,2013-09-28 20:05:00,
2013-09-28 16:10:00,63.9,56.9,29.03,North,2,8.1,8.1,78,0.00,CLR,CLR,0.00,WeatherDisplay:10.37,2013-09-28 20:10:00,
2013-09-28 16:15:00,63.7,56.7,29.08,NNE,23,3.5,3.5,78,0.00,CLR,CLR,0.00,WeatherDisplay:10.37,2013-09-28 20:15:00,
2013-09-28 16:20:00,63.6,56.6,29.09,NNE,13,2.3,2.3,78,0.00,CLR,CLR,0.00,WeatherDisplay:10.37,2013-09-28 20:20:00,
2013-09-28 16:25:00,63.5,56.5,29.34,NNE,25,2.3,2.3,78,0.00,CLR,CLR,0.00,WeatherDisplay:10.37,2013-09-28 20:25:00,
2013-09-28 16:30:00,63.6,56.6,29.25,NNE,17,4.6,4.6,78,0.00,CLR,CLR,0.00,WeatherDisplay:10.37,2013-09-28 20:30:00,
2013-09-28 16:35:00,63.8,56.8,29.17,NNE,19,3.5,3.5,78,0.00,CLR,CLR,0.00,WeatherDisplay:10.37,2013-09-28 20:35:00,
2013-09-28 16:40:00,64.0,57.0,29.40,North,0,5.8,5.8,78,0.00,CLR,CLR,0.00,WeatherDisplay:10.37,2013-09-28 20:40:00,
2013-09-28 16:45:00,64.2,57.2,29.36,North,10,8.1,8.1,78,0.00,CLR,CLR,0.00,WeatherDisplay:10.37,2013-09-28 20:45:00,
2013-09-28 16:50:00,64.1,57.1,29.09,NNE,30,3.5,3.5,78,0.00,CLR,CLR,0.00,WeatherDisplay:10.37,2013-09-28 20:50:00,
2013-09-28 16:55:00,64.1,57.1,29.00,NNE,31,5.8,5.8,78,0.00,CLR,CLR,0.00,WeatherDisplay:10.37,2013-09-28 20:55:00,
2013-09-28 17:00:00,63.9,56.9,29.61,NNE,18,6.9,6.9,78,0.00,CLR,CLR,0.00,WeatherDisplay:10.37,2013-09-28 21:00:00,
2013-09-28 17:05:00,63.7,56.7,29.01,NNE,14,4.6,4.6,78,0.00,CLR,CLR,0.00,WeatherDisplay:10.37,2013-09-28 21:05:00,
2013-09-28 17:10:00,63.5,56.5,29.03,NNE,21,6.9,6.9,78,0.00,CLR,CLR,0.00,WeatherDisplay:10.37,2013-09-28 21:10:00,
2013-09-28 17:15:00,63.2,56.2,29.03,NNE,16,3.5,3.5,78,0.00,CLR,CLR,0.00,WeatherDisplay:10.37,2013-09-28 21:15:00,
2013-09-28 17:20:00,63.1,56.5,29.03,North,0,4.6,4.6,79,0.00,CLR,CLR,0.00,WeatherDisplay:10.37,2013-09-28 21:20:00,
2013-09-28 17:25:00,63.0,56.0,28.99,NNE,32,2.3,2.3,78,0.00,CLR,CLR,0.00,WeatherDisplay:10.37,2013-09-28 21:25:00,
2013-09-28 17:30:00,63.0,56.4,29.02,NNE,29,4.0,4.0,79,0.00,CLR,CLR,0.00,WeatherDisplay:10.37,2013-09-28 21:30:00,
2013-09-28 17:35:00,62.8,56.2,29.01,North,351,4.6,4.6,79,0.00,CLR,CLR,0.00,WeatherDisplay:10.37,2013-09-28 21:35:00,
2013-09-28 17:40:00,62.8,56.2,29.02,North,356,4.6,4.6,79,0.00,CLR,CLR,0.00,WeatherDisplay:10.37,2013-09-28 21:40:00,
2013-09-28 17:45:00,62.7,56.1,29.01,North,358,4.6,4.6,79,0.00,CLR,CLR,0.00,WeatherDisplay:10.37,2013-09-28 21:45:00,
2013-09-28 17:50:00,62.6,56.0,29.04,North,4,3.5,3.5,79,0.00,CLR,CLR,0.00,WeatherDisplay:10.37,2013-09-28 21:50:00,
2013-09-28 17:55:00,62.5,56.2,28.94,North,11,3.5,3.5,80,0.00,CLR,CLR,0.00,WeatherDisplay:10.37,2013-09-28 21:55:00,
2013-09-28 18:00:00,62.5,56.2,28.96,North,2,3.5,3.5,80,0.00,CLR,CLR,0.00,WeatherDisplay:10.37,2013-09-28 22:00:00,
2013-09-28 18:05:00,62.3,58.1,28.65,North,0,3.5,3.5,86,0.00,CLR,CLR,0.00,WeatherDisplay:10.37,2013-09-28 22:05:00,
2013-09-28 18:11:00,62.1,57.9,28.64,North,0,1.2,0.0,86,0.00,CLR,CLR,0.00,WeatherDisplay:10.37,2013-09-28 22:11:00,
2013-09-28 18:16:00,62.0,57.8,28.65,North,0,2.3,2.3,86,0.00,CLR,CLR,0.00,WeatherDisplay:10.37,2013-09-28 22:16:00,
2013-09-28 18:21:00,61.9,58.0,28.65,North,0,2.3,2.3,87,0.00,CLR,CLR,0.00,WeatherDisplay:10.37,2013-09-28 22:21:00,
2013-09-28 18:26:00,61.8,57.9,28.66,NNW,348,1.2,1.2,87,0.00,CLR,CLR,0.00,WeatherDisplay:10.37,2013-09-28 22:26:00,
2013-09-28 18:31:00,61.6,58.0,28.65,NNW,348,2.3,2.3,88,0.00,CLR,CLR,0.00,WeatherDisplay:10.37,2013-09-28 22:31:00,
2013-09-28 18:36:00,61.4,57.8,28.66,NNW,348,3.5,3.5,88,0.00,CLR,CLR,0.00,WeatherDisplay:10.37,2013-09-28 22:36:00,
2013-09-28 18:41:00,61.2,57.9,28.65,NNW,348,3.5,3.5,89,0.00,CLR,CLR,0.00,WeatherDisplay:10.37,2013-09-28 22:41:00,
2013-09-28 18:46:00,60.9,57.6,28.65,NNW,348,0.0,0.0,89,0.00,CLR,CLR,0.00,WeatherDisplay:10.37,2013-09-28 22:46:00,
2013-09-28 18:51:00,60.7,57.4,28.65,NNW,348,0.0,0.0,89,0.00,CLR,CLR,0.00,WeatherDisplay:10.37,2013-09-28 22:51:00,
2013-09-28 18:56:00,60.3,57.0,28.64,North,349,3.5,3.5,89,0.00,CLR,CLR,0.00,WeatherDisplay:10.37,2013-09-28 22:56:00,
2013-09-28 19:01:00,60.0,57.1,28.64,North,354,3.0,3.0,90,0.00,CLR,CLR,0.00,WeatherDisplay:10.37,2013-09-28 23:01:00,
2013-09-28 19:06:00,59.7,56.8,28.64,North,354,2.0,2.0,90,0.00,CLR,CLR,0.00,WeatherDisplay:10.37,2013-09-28 23:06:00,
2013-09-28 19:11:00,59.4,56.5,28.64,North,354,1.2,1.2,90,0.00,CLR,CLR,0.00,WeatherDisplay:10.37,2013-09-28 23:11:00,
2013-09-28 19:16:00,59.1,56.2,28.64,North,354,2.3,2.3,90,0.00,CLR,CLR,0.00,WeatherDisplay:10.37,2013-09-28 23:16:00,
2013-09-28 19:21:00,58.8,57.1,28.64,North,354,3.5,3.5,94,0.00,CLR,CLR,0.00,WeatherDisplay:10.37,2013-09-28 23:21:00,
2013-09-28 19:26:00,58.5,56.8,28.64,North,354,2.3,2.3,94,0.00,CLR,CLR,0.00,WeatherDisplay:10.37,2013-09-28 23:26:00,
2013-09-28 19:31:00,58.3,54.4,28.64,North,354,3.5,3.5,87,0.00,CLR,CLR,0.00,WeatherDisplay:10.37,2013-09-28 23:31:00,
2013-09-28 19:36:00,58.1,55.8,28.64,North,354,3.5,3.5,92,0.00,CLR,CLR,0.00,WeatherDisplay:10.37,2013-09-28 23:36:00,
2013-09-28 19:41:00,57.9,55.6,28.65,North,354,2.3,2.3,92,0.00,CLR,CLR,0.00,WeatherDisplay:10.37,2013-09-28 23:41:00,
2013-09-28 19:46:00,57.7,55.1,28.64,North,354,2.3,2.3,91,0.00,CLR,CLR,0.00,WeatherDisplay:10.37,2013-09-28 23:46:00,
2013-09-28 19:51:00,57.4,54.8,28.64,North,354,2.0,2.0,91,0.00,CLR,CLR,0.00,WeatherDisplay:10.37,2013-09-28 23:51:00,
2013-09-28 19:56:00,57.2,54.3,28.65,North,354,3.5,3.5,90,0.00,CLR,CLR,0.00,WeatherDisplay:10.37,2013-09-28 23:56:00,
2013-09-28 20:01:00,57.1,55.4,28.65,North,354,2.3,2.3,94,0.00,CLR,CLR,0.00,WeatherDisplay:10.37,2013-09-29 00:01:00,
2013-09-28 20:06:00,56.9,54.9,28.65,North,354,2.3,2.3,93,0.00,CLR,CLR,0.00,WeatherDisplay:10.37,2013-09-29 00:06:00,
2013-09-28 20:12:00,56.8,54.5,28.65,North,354,2.3,2.3,92,0.00,CLR,CLR,0.00,WeatherDisplay:10.37,2013-09-29 00:12:00,
2013-09-28 20:17:00,56.6,54.6,28.65,North,354,3.5,3.5,93,0.00,CLR,CLR,0.00,WeatherDisplay:10.37,2013-09-29 00:17:00,
2013-09-28 20:22:00,56.5,54.8,28.65,North,354,1.2,1.2,94,0.00,CLR,CLR,0.00,WeatherDisplay:10.37,2013-09-29 00:22:00,
2013-09-28 20:27:00,56.5,54.5,28.65,North,354,0.0,0.0,93,0.00,CLR,CLR,0.00,WeatherDisplay:10.37,2013-09-29 00:27:00,
2013-09-28 20:32:00,56.3,54.0,28.64,North,354,3.5,3.5,92,0.00,CLR,CLR,0.00,WeatherDisplay:10.37,2013-09-29 00:32:00,
2013-09-28 20:37:00,56.3,54.0,28.64,North,354,2.3,2.3,92,0.00,CLR,CLR,0.00,WeatherDisplay:10.37,2013-09-29 00:37:00,
2013-09-28 20:42:00,56.2,54.2,28.64,North,354,2.3,2.3,93,0.00,CLR,CLR,0.00,WeatherDisplay:10.37,2013-09-29 00:42:00,
2013-09-28 20:47:00,56.2,54.2,28.65,North,354,2.3,2.3,93,0.00,CLR,CLR,0.00,WeatherDisplay:10.37,2013-09-29 00:47:00,
2013-09-28 20:52:00,56.1,54.1,28.65,North,354,2.3,2.3,93,0.00,CLR,CLR,0.00,WeatherDisplay:10.37,2013-09-29 00:52:00,
2013-09-28 20:57:00,56.0,54.0,28.65,North,354,2.3,2.3,93,0.00,CLR,CLR,0.00,WeatherDisplay:10.37,2013-09-29 00:57:00,
2013-09-28 21:02:00,55.9,53.9,28.65,North,354,3.5,3.5,93,0.00,CLR,CLR,0.00,WeatherDisplay:10.37,2013-09-29 01:02:00,
2013-09-28 21:07:00,55.8,53.8,28.65,NNW,329,3.5,3.5,93,0.00,CLR,CLR,0.00,WeatherDisplay:10.37,2013-09-29 01:07:00,
2013-09-28 21:12:00,55.7,54.0,28.65,NW,323,3.5,3.5,94,0.00,CLR,CLR,0.00,WeatherDisplay:10.37,2013-09-29 01:12:00,
2013-09-28 21:17:00,55.8,53.8,28.64,WNW,285,3.5,3.5,93,0.00,CLR,CLR,0.00,WeatherDisplay:10.37,2013-09-29 01:17:00,
2013-09-28 21:22:00,55.7,53.7,28.65,WNW,285,3.5,3.5,93,0.00,CLR,CLR,0.00,WeatherDisplay:10.37,2013-09-29 01:22:00,
2013-09-28 21:27:00,55.6,53.3,28.64,WNW,285,3.5,3.5,92,0.00,CLR,CLR,0.00,WeatherDisplay:10.37,2013-09-29 01:27:00,
2013-09-28 21:32:00,55.6,53.3,28.65,WNW,285,3.5,3.5,92,0.00,CLR,CLR,0.00,WeatherDisplay:10.37,2013-09-29 01:32:00,
2013-09-28 21:37:00,55.4,53.1,28.64,WNW,284,3.5,3.5,92,0.00,CLR,CLR,0.00,WeatherDisplay:10.37,2013-09-29 01:37:00,
2013-09-28 21:42:00,55.4,53.1,28.64,WNW,284,3.5,3.5,92,0.00,CLR,CLR,0.00,WeatherDisplay:10.37,2013-09-29 01:42:00,
2013-09-28 21:47:00,55.3,53.3,28.65,West,279,3.5,3.5,93,0.00,CLR,CLR,0.00,WeatherDisplay:10.37,2013-09-29 01:47:00,
2013-09-28 21:52:00,55.1,53.4,28.64,West,279,2.0,2.0,94,0.00,CLR,CLR,0.00,WeatherDisplay:10.37,2013-09-29 01:52:00,
2013-09-28 21:57:00,55.0,53.3,28.65,West,280,4.6,4.6,94,0.00,CLR,CLR,0.00,WeatherDisplay:10.37,2013-09-29 01:57:00,
2013-09-28 22:02:00,54.9,53.5,28.64,West,280,4.0,4.0,95,0.00,CLR,CLR,0.00,WeatherDisplay:10.37,2013-09-29 02:02:00,
2013-09-28 22:07:00,54.8,53.1,28.65,West,280,3.0,3.0,94,0.00,CLR,CLR,0.00,WeatherDisplay:10.37,2013-09-29 02:07:00,
2013-09-28 22:12:00,54.7,52.4,28.65,North,357,8.1,8.1,92,0.00,CLR,CLR,0.00,WeatherDisplay:10.37,2013-09-29 02:12:00,
2013-09-28 22:17:00,54.7,52.4,28.64,North,356,3.5,3.5,92,0.00,CLR,CLR,0.00,WeatherDisplay:10.37,2013-09-29 02:17:00,
2013-09-28 22:22:00,54.6,52.3,28.65,North,356,2.3,2.3,92,0.00,CLR,CLR,0.00,WeatherDisplay:10.37,2013-09-29 02:22:00,
2013-09-28 22:27:00,54.5,52.5,28.65,North,356,1.2,1.2,93,0.00,CLR,CLR,0.00,WeatherDisplay:10.37,2013-09-29 02:27:00,
2013-09-28 22:33:00,54.6,52.6,28.65,NW,323,3.5,3.5,93,0.00,CLR,CLR,0.00,WeatherDisplay:10.37,2013-09-29 02:33:00,
2013-09-28 22:38:00,54.7,52.7,28.65,NW,323,1.2,1.2,93,0.00,CLR,CLR,0.00,WeatherDisplay:10.37,2013-09-29 02:38:00,
2013-09-28 22:43:00,54.6,52.6,28.65,NW,323,3.5,3.5,93,0.00,CLR,CLR,0.00,WeatherDisplay:10.37,2013-09-29 02:43:00,
2013-09-28 22:48:00,54.5,52.5,28.65,NW,321,0.0,0.0,93,0.00,CLR,CLR,0.00,WeatherDisplay:10.37,2013-09-29 02:48:00,
2013-09-28 22:53:00,54.3,52.6,28.65,WNW,282,3.5,3.5,94,0.00,CLR,CLR,0.00,WeatherDisplay:10.37,2013-09-29 02:53:00,
2013-09-28 22:58:00,54.2,52.5,28.65,West,278,3.5,3.5,94,0.00,CLR,CLR,0.00,WeatherDisplay:10.37,2013-09-29 02:58:00,
2013-09-28 23:03:00,54.1,50.6,28.65,West,278,3.5,3.5,88,0.00,CLR,CLR,0.00,WeatherDisplay:10.37,2013-09-29 03:03:00,
2013-09-28 23:08:00,54.1,49.7,28.65,West,278,3.5,3.5,85,0.00,CLR,CLR,0.00,WeatherDisplay:10.37,2013-09-29 03:08:00,
2013-09-28 23:13:00,54.2,51.6,28.65,West,278,2.3,0.0,91,0.00,CLR,CLR,0.00,WeatherDisplay:10.37,2013-09-29 03:13:00,
2013-09-28 23:18:00,54.1,52.1,28.65,West,278,2.3,2.3,93,0.00,CLR,CLR,0.00,WeatherDisplay:10.37,2013-09-29 03:18:00,
2013-09-28 23:23:00,54.0,52.0,28.65,West,278,1.2,0.0,93,0.00,CLR,CLR,0.00,WeatherDisplay:10.37,2013-09-29 03:23:00,
2013-09-28 23:28:00,53.9,52.2,28.64,West,278,3.0,3.0,94,0.00,CLR,CLR,0.00,WeatherDisplay:10.37,2013-09-29 03:28:00,
2013-09-28 23:33:00,53.9,52.8,28.65,West,279,0.0,0.0,96,0.00,CLR,CLR,0.00,WeatherDisplay:10.37,2013-09-29 03:33:00,
2013-09-28 23:38:00,53.8,52.7,28.65,West,278,2.3,2.3,96,0.00,CLR,CLR,0.00,WeatherDisplay:10.37,2013-09-29 03:38:00,
2013-09-28 23:43:00,53.6,52.2,28.64,West,278,1.2,1.2,95,0.00,CLR,CLR,0.00,WeatherDisplay:10.37,2013-09-29 03:43:00,
2013-09-28 23:48:00,53.4,52.6,28.64,West,278,3.5,3.5,97,0.00,CLR,CLR,0.00,WeatherDisplay:10.37,2013-09-29 03:48:00,
2013-09-28 23:53:00,53.2,52.4,28.64,West,278,3.5,3.5,97,0.00,CLR,CLR,0.00,WeatherDisplay:10.37,2013-09-29 03:53:00,
2013-09-28 23:58:00,53.0,52.7,28.64,West,278,1.2,1.2,99,0.00,CLR,CLR,0.00,WeatherDisplay:10.37,2013-09-29 03:58:00,